"Pseudo-MPEC" for C2F3PT2

Created 2020 Mar 27 13:07:07 UT using Find_Orb

Click here for an explanation of pseudo-MPECs

 
 Astrometry: 
     C2F3PT2  C2020 03 25.39492 14 51 05.40 +09 25 25.4    ~3PA7 21.1 GVNEOCPG96
     C2F3PT2  C2020 03 25.40007 14 51 05.90 +09 25 30.6    ~3PA7 20.9 GVNEOCPG96
     C2F3PT2  C2020 03 25.40521 14 51 06.34 +09 25 35.9    ~3PA7 20.9 GVNEOCPG96
     C2F3PT2  C2020 03 25.41036 14 51 06.75 +09 25 41.3    ~3PA7 20.8 GVNEOCPG96
     C2F3PT2  C2020 03 25.50138 14 51 14.69 +09 27 11.5    ~3PCM       VNEOCPI52
     C2F3PT2  C2020 03 25.50264 14 51 14.81 +09 27 13.1    ~3PCM       VNEOCPI52
     C2F3PT2  C2020 03 25.50415 14 51 14.90 +09 27 13.6    ~3PCM       VNEOCPI52
     C2F3PT2  C2020 03 26.05269 14 52 06.53 +09 36 19.9    ~3Q2b 20.3 VVNEOCP033
     C2F3PT2  C2020 03 26.05587 14 52 06.82 +09 36 23.5    ~3Q2b 20.4 VVNEOCP033
     C2F3PT2  C2020 03 26.05905 14 52 07.12 +09 36 26.8    ~3Q2b 20.0 VVNEOCP033
     C2F3PT2 KC2020 03 26tVZ1Karj6('.%Astrometry`J[Tg0qr;(u\g0n=[CsQW*#G/_N=dH21
     C2F3PT2 KC2020 03 26hgEv./H'$*V;q@/4R-S070(nW7-`/q(PpY_%'@redacted;]1Px(H21
     C2F3PT2  C2020 03 26.93447 14 53 29.79 +09 51 24.9    ~3QN7 20.1 VVNEOCP033
     C2F3PT2  C2020 03 26.93631 14 53 29.95 +09 51 27.3    ~3QN7 19.5 VVNEOCP033
     C2F3PT2  C2020 03 26.93815 14 53 30.13 +09 51 29.1    ~3QN7 19.8 VVNEOCP033
     C2F3PT2  C2020 03 26.94221 14 53 30.50 +09 51 33.3    ~3QN7 20.1 VVNEOCP033
     C2F3PT2 KC2020 03 26.95407 14 53 31.79 +09 51 47.0    ~3QNq 20.1 VqNEOCPI93
     C2F3PT2 KC2020 03 26.96496 14 53 32.80 +09 51 58.5    ~3QNq 20.3 VqNEOCPI93
     C2F3PT2 KC2020 03 26.98018 14 53 34.14 +09 52 15.3    ~3QNq 20.7 VqNEOCPI93
     C2F3PT2 bC2020 03 27p.=L:JZJj-dxq-BD8lWQK^K.o!-xqoox/sXZiASX?$t's?clicklL01
     C2F3PT2 bC2020 03 27Pp=5A^v36m(+E7hereYfor#KHZFV8f43m5`explanationf[6\y%L01
     C2F3PT2 KC2020 03 27.03811314 53 39.34 +09 53 13.9    ~3R1b 20.3 GVNEOCPJ95
     C2F3PT2 KC2020 03 27.04432614 53 39.88 +09 53 20.0    ~3R1b 20.7 GVNEOCPJ95
     C2F3PT2 KC2020 03 27.05080414 53 40.48 +09 53 27.5    ~3R1b 20.9 GVNEOCPJ95
     C2F3PT2 KC2020 03 27.05696614 53 41.04 +09 53 33.8    ~3R1b 20.8 GVNEOCPJ95
     C2F3PT2  C2020 03 27.07645 14 53 42.57 +09 53 53.9    ~3R2q 20.6 VVNEOCP033
     C2F3PT2  C2020 03 27.07812 14 53 42.71 +09 53 55.9    ~3R2q 21.0 VVNEOCP033
     C2F3PT2  C2020 03 27.07980 14 53 42.86 +09 53 57.9    ~3R2q 21.3 VVNEOCP033
     C2F3PT2  C2020 03 27.47111 14 54 19.62 +10 00 54.2    ~3RBb 21.5 GVNEOCPI52
     C2F3PT2  C2020 03 27.47246 14 54 19.79 +10 00 56.5    ~3RBb       VNEOCPI52
     C2F3PT2  C2020 03 27.47382 14 54 19.85 +10 00 56.5    ~3RBb       VNEOCPI52
     C2F3PT2  C2020 03 27.47517 14 54 20.04 +10 00 58.4    ~3RBb       VNEOCPI52

Station data:
(033) Karl Schwarzschild Observatory, Tautenburg  (N50.980140 E11.711240)
   Germany. 1.3-m Schmidt.
(G96) Mt. Lemmon Survey  (N32.442754 W110.788720)  US/Arizona.  Observers T.
   A. Pruyne, B. M. Africano, E. J. Christensen, G. A. Farneth, D. C. Fuls,
   A. R. Gibbs, A. D. Grauer, H. Gröller, J. A. Johnson, R. A. Kowalski, S.
   M. Larson, G. J. Leonard, D. Rankin, R. L. Seaman, F. C. Shelly. 1.5-m
   reflector + 10K CCD.
(H21) Astronomical Research Observatory, Westfield  (N39.483057 W87.968270)
   US/Illinois. 0.76-m f/3.0 astrograph + CCD.
(I52) Steward Observatory, Mt. Lemmon Station  (N32.442547 W110.788920)
   US/Arizona.  Observers T. A. Pruyne, B. M. Africano, E. J. Christensen, G.
   A. Farneth, D. C. Fuls, A. R. Gibbs, A. D. Grauer, H. Gröller, J. A.
   Johnson, R. A. Kowalski, S. M. Larson, G. J. Leonard, D. Rankin, R. L.
   Seaman, F. C. Shelly. 1.0-m reflector + CCD.
(I93) St Pardon de Conques  (N44.558710 W0.203000)  France.  Observer F.
   Losse. 0.40-m f/3.7 reflector + CCD.
(J95) Great Shefford  (N51.474969 W1.447003)  UK.  Observer P. Birtwhistle.
   0.40-m f/6.0 Schmidt-Cassegrain + CCD.
(L01) Višnjan Observatory, Tičan  (N45.290900 E13.749300)  Croatia.
   Observers K. Korlević, E. Pettarin. Measurer E. Pettarin. 1.0-m f/2.9
   reflector + CCD.

Orbital elements:  C2F3PT2
   Perihelion 2020 Jun 17.227618 +/- 0.185 TT =  5:27:46 (JD 2459017.727618)
Epoch 2020 Mar 27.0 TT = JDT 2458935.5   Earth MOID: 0.0773   AutoNEOCP
M 337.39062563 +/- 0.9              (J2000 ecliptic)
n   0.27496083 +/- 0.0116           Peri.  189.36085 +/- 1.6
a   2.34219020 +/- 0.0651           Node    92.69182 +/- 1.1
e   0.6141865 +/- 0.00981           Incl.    8.63401 +/- 0.06
P   3.58                   H 20.3   G  0.15   U  9.7  
q 0.90364848 +/- 0.00632    Q 3.78073192 +/- 0.132
From 32 observations 2020 Mar. 25-27; mean residual 0".36
Residuals in arcseconds: 
200325 G96  .62-  .30-    200326 H21  .26+  .36+    200327 J95  .13-  .41-    
200325 G96  .20+  .22-    200326 033  .16-  .51-    200327 J95  .12+  .29+    
200325 G96  .14+  .03-    200326 033  .27-  .04-    200327 J95  .21+  .13+    
200325 G96  .37-  .25+    200326 033  .09-  .17-    200327 033  .45-  .38-    
200325 I52  .47+  .24+    200326 033  .09-  .24-    200327 033  .59-  .12-    
200325 I52  .62+  .59+    200326 I93  .23+  .18-    200327 033  .60-  .12+    
200325 I52  .00   .40-    200326 I93  .49+  .15-    200327 I52  .41-  .18-    
200326 033  .55-  .60-    200326 I93  .12-  .62+    200327 I52  .33+  .70+    
200326 033  .43-  .22-    200327 L01  .55-  .32+    200327 I52  .56-  .73-    
200326 033  .16-  .15-    200327 L01  .28-  .30+    200327 I52  .47+  .26-    
200326 H21  .30-  .04-    200327 J95  .17+  .02+    

Ephemerides (geocentric):
Date (UTC) HH   RA              Dec         delta   r     elong  mag " sig PA
---- -- -- --  -------------   -----------  ------ ------ -----  --- ---- ---
2020 03 27 13  14 54 26.725   +10 02 16.34  .47514 1.3990 140.9 20.7 .285 174
2020 03 27 14  14 54 30.689   +10 03 00.58  .47467 1.3987 140.9 20.7 .297 174
2020 03 27 15  14 54 34.656   +10 03 44.88  .47420 1.3983 140.9 20.7 .310 175
2020 03 27 16  14 54 38.625   +10 04 29.23  .47374 1.3979 140.9 20.7 .323 176
2020 03 27 17  14 54 42.597   +10 05 13.64  .47327 1.3976 140.9 20.7 .337 177
2020 03 27 18  14 54 46.570   +10 05 58.10  .47281 1.3972 140.9 20.7 .351 178
2020 03 27 19  14 54 50.546   +10 06 42.63  .47234 1.3969 140.9 20.7 .366 178
2020 03 27 20  14 54 54.525   +10 07 27.21  .47188 1.3965 140.9 20.6 .381 179
2020 03 27 21  14 54 58.505   +10 08 11.84  .47141 1.3961 140.9 20.6 .397   0
2020 03 27 22  14 55 02.488   +10 08 56.54  .47095 1.3958 141.0 20.6 .413   0
2020 03 27 23  14 55 06.474   +10 09 41.29  .47048 1.3954 141.0 20.6 .430   1
2020 03 28 00  14 55 10.461   +10 10 26.10  .47002 1.3950 141.0 20.6 .447   1
2020 03 28 01  14 55 14.451   +10 11 10.96  .46956 1.3947 141.0 20.6 .465   2
2020 03 28 02  14 55 18.444   +10 11 55.89  .46909 1.3943 141.0 20.6 .483   3
2020 03 28 03  14 55 22.439   +10 12 40.87  .46863 1.3939 141.0 20.6 .501   3
2020 03 28 04  14 55 26.436   +10 13 25.91  .46817 1.3936 141.0 20.6 .521   4
2020 03 28 05  14 55 30.435   +10 14 11.01  .46770 1.3932 141.0 20.6 .540   4
2020 03 28 06  14 55 34.437   +10 14 56.16  .46724 1.3929 141.0 20.6 .561   5
2020 03 28 07  14 55 38.442   +10 15 41.37  .46678 1.3925 141.0 20.6 .581   5
2020 03 28 08  14 55 42.449   +10 16 26.64  .46632 1.3921 141.1 20.6 .603   6
2020 03 28 09  14 55 46.458   +10 17 11.97  .46586 1.3918 141.1 20.6 .625   6
2020 03 28 10  14 55 50.470   +10 17 57.36  .46539 1.3914 141.1 20.6 .647   7
2020 03 28 11  14 55 54.484   +10 18 42.80  .46493 1.3910 141.1 20.6 .670   7
2020 03 28 12  14 55 58.501   +10 19 28.31  .46447 1.3907 141.1 20.6 .693   7
2020 03 28 13  14 56 02.520   +10 20 13.87  .46401 1.3903 141.1 20.6 .717   8
2020 03 28 14  14 56 06.542   +10 20 59.49  .46355 1.3900 141.1 20.6 .741   8
2020 03 28 15  14 56 10.566   +10 21 45.16  .46309 1.3896 141.1 20.6 .766   8
2020 03 28 16  14 56 14.592   +10 22 30.90  .46263 1.3892 141.1 20.6 .792   9
2020 03 28 17  14 56 18.622   +10 23 16.69  .46217 1.3889 141.1 20.6 .818   9
2020 03 28 18  14 56 22.653   +10 24 02.55  .46171 1.3885 141.2 20.6 .845  10
2020 03 28 19  14 56 26.688   +10 24 48.46  .46125 1.3881 141.2 20.6 .872  10
2020 03 28 20  14 56 30.724   +10 25 34.43  .46079 1.3878 141.2 20.6 .900  10
2020 03 28 21  14 56 34.764   +10 26 20.46  .46033 1.3874 141.2 20.6 .928  10
2020 03 28 22  14 56 38.806   +10 27 06.54  .45987 1.3870 141.2 20.6 .957  11
2020 03 28 23  14 56 42.850   +10 27 52.69  .45941 1.3867 141.2 20.6 .986  11
2020 03 29 00  14 56 46.898   +10 28 38.90  .45895 1.3863 141.2 20.6 1.02  11
2020 03 29 01  14 56 50.947   +10 29 25.16  .45850 1.3860 141.2 20.6 1.05  12
2020 03 29 02  14 56 55.000   +10 30 11.49  .45804 1.3856 141.2 20.6 1.08  12
2020 03 29 03  14 56 59.055   +10 30 57.87  .45758 1.3852 141.2 20.6 1.11  12
2020 03 29 04  14 57 03.113   +10 31 44.31  .45712 1.3849 141.3 20.6 1.14  12
2020 03 29 05  14 57 07.173   +10 32 30.81  .45667 1.3845 141.3 20.6 1.18  13
2020 03 29 06  14 57 11.236   +10 33 17.37  .45621 1.3841 141.3 20.6 1.21  13
2020 03 29 07  14 57 15.302   +10 34 03.99  .45575 1.3838 141.3 20.6 1.24  13
2020 03 29 08  14 57 19.370   +10 34 50.67  .45530 1.3834 141.3 20.6 1.28  13
2020 03 29 09  14 57 23.441   +10 35 37.41  .45484 1.3831 141.3 20.5 1.31  14
2020 03 29 10  14 57 27.515   +10 36 24.21  .45438 1.3827 141.3 20.5 1.35  14
2020 03 29 11  14 57 31.592   +10 37 11.07  .45393 1.3823 141.3 20.5 1.38  14
2020 03 29 12  14 57 35.671   +10 37 57.99  .45347 1.3820 141.3 20.5 1.42  14